When you browse on this site, cookies collect data to enhance your experience and personalize the content and advertising you see.
Visit our Privacy Policy to learn more. By continuing to use the site, you agree to this use of cookies and data.
  • In Hungary
  • List of Countries
  • For 7 days
  • Water Temperature
  • Satellite Maps
  • Weather Map
  • News
  • Weather Widgets
  • user-avatar
    Login

    Hourly Weather Koscielisko

    Today, 22 April, Monday

    Time Temperature Precipitation Wind Pressure Humidity
    00:00 +4°C° 0 mm 1 mps 663 mmHg 81%
    01:00 +4°C° 0 mm 1 mps 663 mmHg 76%
    02:00 +4°C° 0 mm 1 mps 662 mmHg 77%
    03:00 +3°C° 0 mm 1 mps 662 mmHg 78%
    04:00 +3°C° 0 mm 1 mps 662 mmHg 80%
    05:00 +5°C° 0.1 mm 1 mps 663 mmHg 76%
    06:00 +6°C° 0.1 mm 1 mps 663 mmHg 72%
    07:00 +7°C° 0 mm 0 mps 664 mmHg 65%
    08:00 +9°C° 0.8 mm 1 mps 664 mmHg 65%
    09:00 +9°C° 0.8 mm 1 mps 664 mmHg 64%
    10:00 +9°C° 0.8 mm 2 mps 664 mmHg 63%
    11:00 +9°C° 1 mm 2 mps 664 mmHg 66%
    12:00 +8°C° 1 mm 3 mps 664 mmHg 70%
    13:00 +8°C° 1 mm 3 mps 663 mmHg 73%
    14:00 +8°C° 0.2 mm 3 mps 663 mmHg 70%
    15:00 +9°C° 0.2 mm 3 mps 663 mmHg 67%
    16:00 +9°C° 0.2 mm 3 mps 663 mmHg 63%
    17:00 +7°C° 0 mm 2 mps 663 mmHg 71%
    18:00 +6°C° 0 mm 2 mps 663 mmHg 79%
    19:00 +4°C° 0 mm 2 mps 662 mmHg 86%
    20:00 +4°C° 0 mm 2 mps 663 mmHg 88%
    21:00 +4°C° 0 mm 2 mps 663 mmHg 90%
    22:00 +3°C° 0 mm 2 mps 663 mmHg 92%
    23:00 +3°C° 0 mm 2 mps 663 mmHg 93%

    Tomorrow, 23 April, Tuesday

    Time Temperature Precipitation Wind Pressure Humidity
    00:00 +3°C° 0 mm 2 mps 663 mmHg 93%
    01:00 +3°C° 0 mm 2 mps 663 mmHg 94%
    02:00 +3°C° 0.3 mm 2 mps 663 mmHg 94%
    03:00 +2°C° 0.3 mm 2 mps 663 mmHg 94%
    04:00 +2°C° 0.3 mm 2 mps 662 mmHg 95%
    05:00 +3°C° 0.3 mm 2 mps 663 mmHg 92%
    06:00 +3°C° 0.3 mm 3 mps 663 mmHg 90%
    07:00 +4°C° 0.3 mm 3 mps 663 mmHg 87%
    08:00 +5°C° 0 mm 3 mps 663 mmHg 81%
    09:00 +7°C° 0 mm 3 mps 664 mmHg 75%
    10:00 +7°C° 0 mm 4 mps 664 mmHg 69%
    11:00 +7°C° 0 mm 4 mps 664 mmHg 69%
    12:00 +7°C° 0 mm 4 mps 664 mmHg 69%
    13:00 +7°C° 0 mm 4 mps 664 mmHg 69%
    14:00 +7°C° 0.2 mm 4 mps 663 mmHg 71%
    15:00 +6°C° 0.2 mm 4 mps 663 mmHg 74%
    16:00 +6°C° 0.2 mm 4 mps 663 mmHg 77%
    17:00 +5°C° 0.2 mm 4 mps 663 mmHg 81%
    18:00 +5°C° 0.2 mm 3 mps 663 mmHg 85%
    19:00 +4°C° 0.2 mm 3 mps 663 mmHg 89%
    20:00 +4°C° 0.2 mm 3 mps 663 mmHg 90%
    21:00 +4°C° 0.2 mm 3 mps 663 mmHg 91%
    22:00 +3°C° 0.2 mm 3 mps 662 mmHg 92%
    23:00 +3°C° 0.1 mm 3 mps 662 mmHg 93%

    Day after tomorrow, 24 April, Wednesday

    Time Temperature Precipitation Wind Pressure Humidity
    00:00 +3°C° 0.1 mm 3 mps 662 mmHg 93%
    01:00 +3°C° 0.1 mm 3 mps 662 mmHg 94%
    02:00 +3°C° 0 mm 3 mps 662 mmHg 94%
    03:00 +3°C° 0 mm 3 mps 662 mmHg 94%
    04:00 +3°C° 0 mm 3 mps 662 mmHg 94%
    05:00 +4°C° 0.1 mm 3 mps 663 mmHg 92%
    06:00 +4°C° 0.1 mm 3 mps 663 mmHg 90%
    07:00 +5°C° 0.1 mm 3 mps 663 mmHg 88%
    08:00 +6°C° 0.1 mm 4 mps 664 mmHg 84%
    09:00 +7°C° 0.1 mm 4 mps 664 mmHg 81%
    10:00 +7°C° 0.1 mm 4 mps 665 mmHg 78%
    11:00 +8°C° 0.1 mm 4 mps 665 mmHg 78%
    12:00 +8°C° 0.1 mm 4 mps 665 mmHg 78%
    13:00 +8°C° 0.1 mm 4 mps 665 mmHg 77%
    14:00 +8°C° 0 mm 4 mps 665 mmHg 78%
    15:00 +8°C° 0 mm 4 mps 665 mmHg 78%
    16:00 +8°C° 0 mm 4 mps 665 mmHg 78%
    17:00 +9°C° 0 mm 3 mps 665 mmHg 82%
    18:00 +8°C° 0 mm 3 mps 665 mmHg 86%
    19:00 +7°C° 0 mm 3 mps 664 mmHg 90%
    20:00 +7°C° 0 mm 3 mps 664 mmHg 92%
    21:00 +7°C° 0 mm 3 mps 665 mmHg 93%
    22:00 +7°C° 0 mm 3 mps 665 mmHg 95%
    23:00 +7°C° 0 mm 3 mps 665 mmHg 95%

    25 April, Thursday

    Time Temperature Precipitation Wind Pressure Humidity
    00:00 +7°C° 0 mm 3 mps 665 mmHg 95%
    01:00 +7°C° 0 mm 3 mps 665 mmHg 95%
    02:00 +7°C° 0 mm 3 mps 665 mmHg 95%
    03:00 +7°C° 0 mm 3 mps 665 mmHg 95%
    04:00 +7°C° 0 mm 3 mps 665 mmHg 95%
    05:00 +8°C° 0 mm 3 mps 665 mmHg 90%
    06:00 +8°C° 0 mm 4 mps 665 mmHg 85%
    07:00 +10°C° 0 mm 4 mps 666 mmHg 80%
    08:00 +10°C° 0 mm 5 mps 666 mmHg 74%
    09:00 +13°C° 0 mm 5 mps 666 mmHg 69%
    10:00 +14°C° 0 mm 5 mps 667 mmHg 63%
    11:00 +14°C° 0 mm 5 mps 667 mmHg 61%
    12:00 +15°C° 0 mm 5 mps 667 mmHg 59%
    13:00 +16°C° 0 mm 5 mps 667 mmHg 57%
    14:00 +15°C° 0 mm 5 mps 666 mmHg 61%
    15:00 +15°C° 0 mm 5 mps 666 mmHg 65%
    16:00 +14°C° 0 mm 4 mps 665 mmHg 69%
    17:00 +13°C° 0 mm 4 mps 665 mmHg 75%
    18:00 +12°C° 0 mm 3 mps 665 mmHg 82%
    19:00 +11°C° 0 mm 3 mps 664 mmHg 89%
    20:00 +10°C° 0 mm 3 mps 664 mmHg 91%
    21:00 +10°C° 0 mm 3 mps 664 mmHg 93%
    22:00 +10°C° 0 mm 3 mps 664 mmHg 94%
    23:00 +9°C° 0 mm 3 mps 664 mmHg 95%

    26 April, Friday

    Time Temperature Precipitation Wind Pressure Humidity
    00:00 +9°C° 0 mm 3 mps 664 mmHg 95%
    01:00 +9°C° 0 mm 3 mps 664 mmHg 95%
    02:00 +9°C° 0 mm 3 mps 664 mmHg 95%
    03:00 +9°C° 0 mm 3 mps 664 mmHg 95%
    04:00 +9°C° 0 mm 3 mps 663 mmHg 95%
    05:00 +10°C° 0 mm 3 mps 664 mmHg 89%
    06:00 +11°C° 0 mm 4 mps 664 mmHg 83%
    07:00 +12°C° 0 mm 4 mps 664 mmHg 78%
    08:00 +13°C° 0 mm 5 mps 664 mmHg 70%
    09:00 +15°C° 0 mm 5 mps 665 mmHg 63%
    10:00 +16°C° 0 mm 6 mps 665 mmHg 55%
    11:00 +16°C° 0 mm 6 mps 665 mmHg 55%
    12:00 +16°C° 0 mm 5 mps 664 mmHg 55%
    13:00 +17°C° 0 mm 5 mps 664 mmHg 55%
    14:00 +16°C° 0 mm 5 mps 664 mmHg 60%
    15:00 +15°C° 0 mm 5 mps 663 mmHg 64%
    16:00 +15°C° 0 mm 5 mps 663 mmHg 69%
    17:00 +14°C° 0.1 mm 4 mps 663 mmHg 74%
    18:00 +12°C° 0.1 mm 3 mps 663 mmHg 78%
    19:00 +11°C° 0.1 mm 3 mps 662 mmHg 83%
    20:00 +12°C° 0.1 mm 2 mps 662 mmHg 84%
    21:00 +10°C° 0.1 mm 2 mps 662 mmHg 85%
    22:00 +10°C° 0.1 mm 2 mps 662 mmHg 86%
    23:00 +10°C° 0.8 mm 2 mps 662 mmHg 88%

    27 April, Saturday

    Time Temperature Precipitation Wind Pressure Humidity
    00:00 +9°C° 0.8 mm 2 mps 662 mmHg 90%
    01:00 +9°C° 0.8 mm 2 mps 662 mmHg 91%
    02:00 +10°C° 0.7 mm 1 mps 662 mmHg 93%
    03:00 +10°C° 0.7 mm 1 mps 662 mmHg 95%
    04:00 +8°C° 0.7 mm 0 mps 662 mmHg 97%
    05:00 +9°C° 0.1 mm 0 mps 663 mmHg 96%
    06:00 +9°C° 0.1 mm 0 mps 663 mmHg 95%
    07:00 +10°C° 0.1 mm 0 mps 663 mmHg 94%
    08:00 +11°C° 0.5 mm 1 mps 664 mmHg 93%
    09:00 +11°C° 0.5 mm 1 mps 664 mmHg 93%
    10:00 +11°C° 0.5 mm 1 mps 664 mmHg 93%
    11:00 +9°C° 0.9 mm 2 mps 664 mmHg 93%
    12:00 +9°C° 0.9 mm 2 mps 664 mmHg 93%
    13:00 +9°C° 0.9 mm 2 mps 665 mmHg 94%
    14:00 +8°C° 1.1 mm 2 mps 664 mmHg 95%
    15:00 +7°C° 1.1 mm 2 mps 664 mmHg 96%
    16:00 +7°C° 1.1 mm 2 mps 664 mmHg 96%
    17:00 +7°C° 0.1 mm 2 mps 664 mmHg 96%
    18:00 +6°C° 0.1 mm 2 mps 665 mmHg 96%
    19:00 +6°C° 0.1 mm 2 mps 665 mmHg 96%
    20:00 +6°C° 0.1 mm 2 mps 665 mmHg 96%
    21:00 +6°C° 0.1 mm 2 mps 666 mmHg 96%
    22:00 +6°C° 0.1 mm 2 mps 666 mmHg 96%
    23:00 +6°C° 0 mm 2 mps 666 mmHg 96%
    Show more